カタログに戻る

STARLINK-37103

運用中通信VLEO
NORAD 68267·PAYLOAD·🇺🇸 United States

打ち上げ Mar 19, 2026 から Vandenberg Space Force Base

Loading…

次のパス (今後24時間)

TLE

最新Source: CelesTrak SupGP

元期: Sep 15, 2026, 04:19 UTC

1 68267C 26055F   26258.18034722  .00049413  00000+0  14599-2 0  2585
2 68267  53.1564 154.2884 0001323  78.4053 175.8023 15.34365295    13

AllMySatでSTARLINK-37103をリアルタイム追跡

Download on the App Store